DW6366 Weather Reports


Display with metric or nautical units.
time (UTC)temp
F
wind
direction
speed
MPH
gust
MPH
rain 1hr
in
rain 24hr
in
rain mn
in
humidity
%
barometer
mb
20260903075336 66 230 4.0 11.0 0.00 0.31 0.06 94 1016.1
20260903074329 66 257 5.0 11.0 0.04 0.31 0.06 94 1015.9
20260903073333 66 227 6.0 13.0 0.08 0.31 0.06 94 1016.1
20260903072343 66 257 6.0 12.0 0.12 0.31 0.06 93 1016.1
20260903071348 66 238 6.0 13.0 0.12 0.31 0.06 93 1016.1
20260903070328 66 256 5.0 12.0 0.16 0.31 0.06 93 1016.2
20260903065322 66 297 5.0 13.0 0.16 0.31 0.06 93 1016.2
20260903064326 66 225 4.0 6.0 0.16 0.28 0.06 92 1016.2
20260903063328 65 225 5.0 10.0 0.20 0.24 0.05 92 1016.1
20260903062335 65 267 3.0 8.0 0.20 0.20 0.04 91 1016.1
20260903061337 65 240 3.0 8.0 0.20 0.20 0.04 91 1016.0
20260903060351 66 228 3.0 8.0 0.16 0.16 0.03 90 1015.9
20260903055338 66 224 5.0 10.0 0.16 0.16 0.03 90 1015.9
20260903054410 66 213 6.0 10.0 0.12 0.12 0.02 89 1015.9
20260903053323 66 208 6.0 11.0 0.04 0.04 0.01 88 1015.9
20260903052338 66 208 6.0 11.0 0.00 0.00 0.00 88 1015.8
20260903051327 66 193 5.0 11.0 0.00 0.00 0.00 88 1015.8
20260903050322 66 226 5.0 14.0 0.00 0.00 0.00 88 1015.7
20260903045412 66 217 4.0 13.0 0.00 0.00 0.00 88 1015.6
20260903044333 66 230 5.0 11.0 0.00 0.00 0.00 88 1015.7
20260903043331 66 225 5.0 10.0 0.00 0.00 0.00 88 1015.7
20260903042325 65 221 5.0 11.0 0.00 0.00 0.00 88 1015.5
20260903041339 66 203 4.0 10.0 0.00 0.00 0.00 87 1015.6
20260903040354 66 244 5.0 13.0 0.00 0.00 0.00 87 1015.8
20260903035327 66 242 7.0 11.0 0.00 0.00 0.00 87 1015.9
20260903034326 66 219 7.0 14.0 0.00 0.00 0.00 87 1016.1
20260903033321 65 213 5.0 11.0 0.00 0.00 0.00 86 1016.3
20260903032344 65 249 4.0 10.0 0.00 0.00 0.00 87 1016.5
20260903031332 65 208 5.0 12.0 0.00 0.00 0.00 87 1016.2
20260903030325 65 235 5.0 11.0 0.00 0.00 0.00 87 1016.2
20260903025321 65 252 7.0 11.0 0.00 0.00 0.00 86 1016.1
20260903024349 66 225 4.0 15.0 0.00 0.00 0.00 86 1016.3
20260903023327 66 191 5.0 20.0 0.00 0.00 0.00 84 1016.5
20260903022323 66 219 9.0 19.0 0.00 0.00 0.00 83 1016.6
20260903021331 66 250 5.0 9.0 0.00 0.00 0.00 83 1016.6
20260903020337 66 236 4.0 10.0 0.00 0.00 0.00 83 1016.7
20260903015328 66 233 5.0 11.0 0.00 0.00 0.00 82 1016.7
20260903014320 66 222 6.0 12.0 0.00 0.00 0.00 82 1016.7
20260903013329 66 230 4.0 10.0 0.00 0.00 0.00 81 1016.8
20260903012321 66 224 5.0 10.0 0.00 0.00 0.00 81 1016.9
20260903011333 66 191 4.0 12.0 0.00 0.00 0.00 80 1016.9
20260903010326 66 219 5.0 9.0 0.00 0.00 0.00 80 1017.1
20260903005321 66 208 4.0 9.0 0.00 0.00 0.00 79 1017.2
20260903004336 66 230 4.0 12.0 0.00 0.00 0.00 79 1017.2
20260903003323 66 194 4.0 12.0 0.00 0.00 0.00 79 1017.5
20260903002337 66 258 7.0 12.0 0.00 0.00 0.00 79 1017.7
20260903001349 66 194 5.0 12.0 0.00 0.00 0.00 79 1017.8
20260903000347 66 233 6.0 9.0 0.00 0.00 0.00 79 1017.7
20260902235324 66 203 5.0 10.0 0.00 0.00 0.00 79 1017.7
20260902234338 65 235 5.0 9.0 0.00 0.00 0.00 79 1017.9
20260902233338 65 234 5.0 10.0 0.00 0.00 0.00 79 1017.9
20260902232327 65 244 5.0 10.0 0.00 0.00 0.00 80 1017.9
20260902231335 65 223 6.0 10.0 0.00 0.00 0.00 81 1018.1
20260902230326 64 213 3.0 8.0 0.00 0.00 0.00 82 1018.1
20260902225320 64 213 3.0 6.0 0.00 0.00 0.00 83 1018.2
20260902224346 64 224 3.0 5.0 0.00 0.00 0.00 83 1018.4
20260902223350 64 225 3.0 6.0 0.00 0.00 0.00 83 1018.5
20260902222403 64 227 2.0 5.0 0.00 0.00 0.00 83 1018.5
20260902221342 64 198 2.0 4.0 0.00 0.00 0.00 83 1018.6
20260902220345 64 194 2.0 6.0 0.00 0.00 0.00 82 1018.8
20260902192335 66 221 1.0 3.0 0.00 0.00 0.00 84 1019.4
20260902191349 67 220 1.0 4.0 0.00 0.00 0.00 83 1019.4
20260902190334 67 241 3.0 8.0 0.00 0.00 0.00 82 1019.4
20260902185323 67 269 3.0 6.0 0.00 0.00 0.00 81 1019.6
20260902184324 67 217 2.0 5.0 0.00 0.00 0.00 80 1019.5
20260902183321 67 225 2.0 3.0 0.00 0.00 0.00 80 1019.4
20260902182338 67 230 1.0 4.0 0.00 0.00 0.00 79 1019.4
20260902181333 68 261 2.0 5.0 0.00 0.00 0.00 79 1019.5
20260902180350 68 246 3.0 5.0 0.00 0.00 0.00 78 1019.5
20260902175335 68 247 2.0 5.0 0.00 0.00 0.00 77 1019.6
20260902174326 68 300 2.0 4.0 0.00 0.00 0.00 77 1019.6
20260902173322 68 289 1.0 6.0 0.00 0.00 0.00 76 1019.6
20260902172333 68 208 3.0 9.0 0.00 0.00 0.00 76 1019.6
20260902171327 68 217 5.0 10.0 0.00 0.00 0.00 75 1019.6
20260902170350 69 203 4.0 8.0 0.00 0.00 0.00 75 1019.5
20260902165335 69 266 4.0 9.0 0.00 0.00 0.00 75 1019.6
20260902164329 69 250 2.0 6.0 0.00 0.00 0.00 76 1019.7
20260902163327 69 227 4.0 9.0 0.00 0.00 0.00 76 1019.6
20260902162347 69 213 5.0 8.0 0.00 0.00 0.00 75 1019.7
20260902161336 69 245 3.0 9.0 0.00 0.00 0.00 75 1019.8
20260902160355 69 292 3.0 6.0 0.00 0.00 0.00 74 1019.8
20260902155328 70 198 3.0 6.0 0.00 0.00 0.00 74 1020.0
20260902154345 69 230 4.0 10.0 0.00 0.00 0.00 74 1020.0
20260902153336 69 236 5.0 12.0 0.00 0.00 0.00 77 1020.1
20260902152333 69 263 4.0 9.0 0.00 0.00 0.00 77 1020.2
20260902151329 69 217 3.0 11.0 0.00 0.00 0.00 77 1020.2
20260902150342 69 261 3.0 13.0 0.00 0.00 0.00 77 1020.3
20260902145321 69 250 4.0 12.0 0.00 0.00 0.00 75 1020.3
20260902144334 69 237 4.0 9.0 0.00 0.00 0.00 75 1020.5
20260902143334 69 219 5.0 12.0 0.00 0.00 0.00 72 1020.4
20260902142347 70 296 3.0 10.0 0.00 0.00 0.00 73 1020.4
20260902141321 70 203 5.0 10.0 0.00 0.00 0.00 72 1020.4
20260902140326 70 221 6.0 13.0 0.00 0.00 0.00 70 1020.4
20260902135323 71 196 5.0 11.0 0.00 0.00 0.00 70 1020.3
20260902134335 72 219 4.0 11.0 0.00 0.00 0.00 69 1020.3
20260902133349 72 225 4.0 12.0 0.00 0.00 0.00 69 1020.3
20260902132340 73 248 6.0 12.0 0.00 0.00 0.00 67 1020.3
20260902131344 72 286 6.0 13.0 0.00 0.00 0.00 69 1020.3
20260902130337 72 248 6.0 13.0 0.00 0.00 0.00 69 1020.3
20260902125339 72 272 3.0 11.0 0.00 0.00 0.00 72 1020.2
20260902124351 71 297 3.0 9.0 0.00 0.00 0.00 73 1020.3
20260902123344 70 192 4.0 10.0 0.00 0.00 0.00 74 1020.3
20260902122334 70 254 3.0 13.0 0.00 0.00 0.00 76 1020.3
20260902121330 70 288 5.0 10.0 0.00 0.00 0.00 74 1020.3
20260902120338 69 285 3.0 7.0 0.00 0.00 0.00 80 1020.2
20260902115320 68 230 1.0 5.0 0.00 0.00 0.00 81 1020.4
20260902114328 68 208 0.0 6.0 0.00 0.00 0.00 82 1020.5
20260902113321 68 203 3.0 9.0 0.00 0.00 0.00 82 1020.5
20260902112320 68 254 4.0 10.0 0.00 0.00 0.00 81 1020.6
20260902111323 68 268 4.0 9.0 0.00 0.00 0.00 80 1020.6
20260902110324 69 277 3.0 8.0 0.00 0.00 0.00 81 1020.6
20260902105332 69 217 3.0 6.0 0.00 0.00 0.00 80 1020.5
20260902104325 69 242 3.0 10.0 0.00 0.00 0.00 79 1020.5
20260902103332 70 253 0.0 0.0 0.00 0.00 0.00 79 1020.4
20260902102326 71 234 0.0 0.0 0.00 0.00 0.00 79 1020.4
20260902101343 71 219 0.0 0.0 0.00 0.00 0.00 79 1020.5
20260902100349 71 188 0.0 0.0 0.00 0.00 0.00 80 1020.5
20260902095355 69 277 0.0 0.0 0.00 0.00 0.00 83 1020.5
20260902094323 68 219 0.0 0.0 0.00 0.00 0.00 85 1020.5
20260902093333 68 223 0.0 0.0 0.00 0.00 0.00 86 1020.5
20260902092323 67 208 0.0 0.0 0.00 0.00 0.00 87 1020.6
20260902091336 67 217 0.0 0.0 0.00 0.00 0.00 87 1020.6
20260902090331 66 221 0.0 0.0 0.00 0.00 0.00 88 1020.6
20260902085343 66 292 0.0 0.0 0.00 0.00 0.00 89 1020.5
20260902084400 65 220 0.0 0.0 0.00 0.00 0.00 90 1020.5
20260902083325 65 242 0.0 0.0 0.00 0.00 0.00 90 1020.3
20260902082333 64 197 0.0 0.0 0.00 0.00 0.00 91 1020.2
20260902081322 64 165 0.0 0.0 0.00 0.00 0.00 91 1020.1
20260902080331 63 208 0.0 0.0 0.00 0.00 0.00 92 1020.1